CW4132 Weather Reports


Display with metric or nautical units.
time (UTC)temp
F
wind
direction
speed
MPH
gust
MPH
rain 1hr
in
rain 24hr
in
rain mn
in
humidity
%
barometer
mb
20210614033120 70 188 0.0 0.0 0.00 0.00 0.00 86 1013.5
20210614031551 70 188 0.0 0.0 0.00 0.00 0.00 86 1013.7
20210614030041 70 188 0.0 0.0 0.00 0.00 0.00 86 1013.8
20210614024513 71 188 0.0 0.0 0.00 0.00 0.00 86 1013.8
20210614023122 71 188 0.0 0.0 0.00 0.00 0.00 85 1013.8
20210614021756 71 188 0.0 0.0 0.00 0.00 0.00 85 1013.7
20210614020019 72 188 0.0 0.0 0.00 0.00 0.00 85 1013.7
20210614014728 73 188 0.0 0.0 0.00 0.00 0.00 85 1013.4
20210614013122 73 188 0.0 0.0 0.00 0.00 0.00 84 1013.2
20210614011617 74 188 0.0 0.0 0.00 0.00 0.00 83 1012.9
20210614010034 74 188 0.0 0.0 0.00 0.00 0.00 81 1012.9
20210614004511 75 188 0.0 0.0 0.00 0.00 0.00 80 1013.0
20210614003047 76 188 0.0 0.0 0.00 0.00 0.00 79 1012.8
20210614001704 76 179 0.0 0.0 0.00 0.00 0.00 78 1012.5
20210614000138 76 179 0.0 0.0 0.00 0.00 0.00 76 1012.4
20210613234559 77 179 0.0 0.0 0.00 0.00 0.00 76 1012.1
20210613233010 78 179 0.0 0.0 0.00 0.00 0.00 73 1011.9
20210613231640 79 179 0.0 0.0 0.00 0.00 0.00 70 1011.6
20210613230052 81 179 0.0 0.0 0.00 0.00 0.00 65 1011.4
20210613224618 83 179 0.0 0.0 0.00 0.00 0.00 65 1011.4
20210613223031 82 179 0.0 0.0 0.00 0.00 0.00 66 1011.3
20210613221512 83 179 0.0 0.0 0.00 0.00 0.00 65 1011.4
20210613220208 85 179 0.0 0.0 0.00 0.00 0.00 62 1011.6
20210613214724 84 179 0.0 0.0 0.00 0.00 0.00 63 1012.0
20210613213109 83 179 0.0 0.0 0.00 0.00 0.00 64 1012.1
20210613211520 84 179 0.0 0.0 0.00 0.00 0.00 61 1012.2
20210613210005 84 186 0.0 0.0 0.00 0.00 0.00 57 1012.4
20210613204639 84 186 0.0 0.0 0.00 0.00 0.00 58 1012.6
20210613203030 84 186 0.0 0.0 0.00 0.00 0.00 63 1012.8
20210613201534 84 186 0.0 0.0 0.00 0.00 0.00 65 1013.0
20210613200224 84 186 0.0 0.0 0.00 0.00 0.00 64 1013.1
20210613194702 83 123 0.0 0.0 0.00 0.00 0.00 60 1013.2
20210613193043 84 122 0.0 0.0 0.00 0.00 0.00 58 1013.4
20210613191631 83 122 0.0 0.0 0.00 0.00 0.00 62 1013.4
20210613190133 82 122 0.0 0.0 0.00 0.00 0.00 60 1013.4
20210613184521 82 105 0.0 0.0 0.00 0.00 0.00 59 1013.4
20210613183121 82 211 0.0 0.0 0.00 0.00 0.00 62 1013.7
20210613183005 82 211 0.0 0.0 0.00 0.00 0.00 58 1013.6
20210613181637 82 211 0.0 0.0 0.00 0.00 0.00 59 1013.8
20210613180138 82 211 0.0 0.0 0.00 0.00 0.00 60 1014.0
20210613174739 81 211 0.0 0.0 0.00 0.00 0.00 64 1014.0
20210613173056 81 211 0.0 0.0 0.00 0.00 0.00 65 1014.0
20210613171614 79 211 0.0 0.0 0.00 0.00 0.00 62 1014.2
20210613171505 80 211 0.0 0.0 0.00 0.00 0.00 60 1014.2
20210613170127 80 203 0.0 0.0 0.00 0.00 0.00 67 1014.4
20210613164533 79 196 0.0 0.0 0.00 0.00 0.00 65 1014.6
20210613163021 79 196 0.0 0.0 0.00 0.00 0.00 61 1014.6
20210613161650 78 196 0.0 0.0 0.00 0.00 0.00 65 1014.8
20210613160059 78 196 0.0 0.0 0.00 0.00 0.00 67 1014.9
20210613154547 78 196 0.0 0.0 0.00 0.00 0.00 72 1014.9
20210613153139 78 196 0.0 0.0 0.00 0.00 0.00 71 1015.0
20210613151630 76 196 0.0 0.0 0.00 0.00 0.00 66 1014.7
20210613150032 76 196 0.0 0.0 0.00 0.00 0.00 75 1014.9
20210613144555 75 278 0.0 0.0 0.00 0.00 0.00 71 1014.8
20210613143147 74 190 0.0 0.0 0.00 0.00 0.00 78 1014.8
20210613141610 73 190 0.0 0.0 0.00 0.00 0.00 78 1014.8
20210613140024 73 190 0.0 1.0 0.00 0.00 0.00 77 1015.0
20210613134511 72 190 0.0 0.0 0.00 0.00 0.00 81 1014.9
20210613133125 71 190 0.0 0.0 0.00 0.00 0.00 84 1014.8
20210613131725 70 190 0.0 0.0 0.00 0.00 0.00 86 1015.1
20210613130120 68 190 0.0 0.0 0.00 0.00 0.00 88 1014.9
20210613124537 67 190 0.0 0.0 0.00 0.00 0.00 87 1014.8
20210613123017 67 184 0.0 0.0 0.00 0.00 0.00 87 1014.5
20210613121611 66 298 0.0 0.0 0.00 0.00 0.00 87 1014.5
20210613120058 66 298 0.0 0.0 0.00 0.00 0.00 87 1014.1
20210613114554 66 298 0.0 0.0 0.00 0.00 0.00 87 1014.0
20210613113127 65 298 0.0 0.0 0.00 0.00 0.00 87 1013.7
20210613113011 65 298 0.0 0.0 0.00 0.00 0.00 87 1013.9
20210613111555 65 298 0.0 0.0 0.00 0.00 0.00 87 1013.9
20210613110108 65 298 0.0 0.0 0.00 0.00 0.00 87 1013.8
20210613104512 65 298 0.0 0.0 0.00 0.00 0.00 87 1013.4
20210613103143 65 298 0.0 0.0 0.00 0.00 0.00 87 1013.5
20210613101544 65 298 0.0 0.0 0.00 0.00 0.00 87 1013.2
20210613100022 65 298 0.0 0.0 0.00 0.00 0.00 87 1013.2
20210613094505 65 300 0.0 0.0 0.00 0.00 0.00 87 1013.0
20210613093108 65 300 0.0 0.0 0.00 0.00 0.00 87 1013.1
20210613091530 66 300 0.0 0.0 0.00 0.00 0.00 87 1013.2
20210613090031 66 300 0.0 0.0 0.00 0.00 0.00 87 1012.8
20210613084524 66 300 0.0 0.0 0.00 0.00 0.00 87 1013.0
20210613083142 66 300 0.0 0.0 0.00 0.00 0.00 87 1013.0
20210613081545 66 300 0.0 0.0 0.00 0.00 0.00 87 1012.9
20210613080055 67 300 0.0 0.0 0.00 0.00 0.00 87 1012.7
20210613074535 67 300 0.0 0.0 0.00 0.00 0.00 87 1012.9
20210613073124 67 300 0.0 0.0 0.00 0.00 0.00 87 1012.6
20210613071604 67 300 0.0 0.0 0.00 0.00 0.00 87 1012.8
20210613070150 67 300 0.0 0.0 0.00 0.00 0.00 87 1012.7
20210613064610 67 300 0.0 0.0 0.00 0.00 0.00 87 1012.9
20210613063017 67 300 0.0 0.0 0.00 0.00 0.00 87 1013.0
20210613061733 67 300 0.0 0.0 0.00 0.00 0.00 87 1012.9
20210613060039 67 300 0.0 0.0 0.00 0.01 0.00 87 1013.0
20210613054603 67 300 0.0 0.0 0.00 0.01 0.00 87 1013.0
20210613053033 67 300 0.0 0.0 0.00 0.01 0.00 87 1013.3
20210613051617 68 300 0.0 0.0 0.00 0.01 0.00 87 1013.3
20210613050105 68 300 0.0 0.0 0.00 0.01 0.00 87 1013.5
20210613044547 68 300 0.0 0.0 0.00 0.01 0.00 87 1013.4
20210613043015 68 300 0.0 0.0 0.00 0.01 0.00 87 1013.7
20210613041737 68 300 0.0 0.0 0.00 0.01 0.00 87 1013.7
20210613040058 68 300 0.0 0.0 0.00 0.01 0.00 87 1013.5
20210613034538 68 300 0.0 0.0 0.00 0.01 0.01 87 1013.6